Location: ActonStarParty
(42.4766°N, 71.4538°W)
Time: 01:00:20
(UTC-04:00)

ATLAS 5 CENTAUR R/B - Visible Passes

Search period start: 30 July 2014 00:00
Search period end: 09 August 2014 00:00
Orbit: 325 x 15030 km, 60.8° (Epoch: 03 February)

Date Brightness Start Highest point End Pass type
(mag) Time Alt. Az. Time Alt. Az. Time Alt. Az.
01 Aug 8.7 04:48:40 10° SE 06:24:06 42° E 07:05:39 10° NE visible
02 Aug 9.3 04:05:00 10° ESE 05:17:12 28° E 05:54:06 10° NE visible
03 Aug 10.0 03:35:29 10° E 04:12:32 16° ENE 04:37:16 10° NE visible
05 Aug 8.6 04:50:12 10° SSE 06:35:31 51° E 07:18:19 10° NE visible
06 Aug 9.1 04:00:10 10° SE 05:27:11 36° E 06:07:42 10° NE visible
07 Aug 9.7 03:21:31 10° ESE 04:21:04 23° E 04:54:31 10° NE visible
08 Aug 9.9 03:05:06 10° ENE 03:17:14 11° ENE 03:27:39 10° ENE visible
